Home   Weather   Oldham   Past weeks

Flag for United Kingdom Past Weather in Oldham, England, United Kingdom — Yesterday and Last 2 Weeks

Now
45 °F

Passing clouds.


Feels Like: 40 °F
Forecast: N/A
Wind: 8 mph from Southwest

Location: Manchester Airport

Current Time: Dec 10, 2016 at 10:31:41 pm

Latest Report: Dec 10, 2016 at 9:50 pm


Visibility: N/A

Pressure: 30.09 "Hg

Humidity: 93%

Dew Point: 43 °F

Location of OldhamLocation

Past Weather in Oldham — Graph

°F

Oldham Temperature Yesterday

Maximum temperature yesterday: 57 °F (at 12:20 pm)
Minimum temperature yesterday: 50 °F (at 12:20 am)
Average temperature yesterday: 54 °F

High & Low Weather Summary for the Past Weeks

 TemperatureHumidityPressure
High57 °F (Dec 7, 12:20 pm)100% (Nov 26, 1:20 am)30.57 "Hg (Nov 26, 1:20 am)
Low25 °F (Nov 26, 6:50 am)50% (Nov 28, 1:20 pm)30.07 "Hg (Dec 8, 7:50 am)
Average42 °F88%30.29 "Hg
* Reported Nov 25 9:20 pm — Dec 10 9:20 pm, Oldham, Weather by CustomWeather, © 2016

Note: Actual official high and low records may vary slightly from our data, if they occured in-between our weather recording intervals... More about our weather records

Advertising

Oldham Weather History for the Previous 24 Hours

Scroll right to see more
 ConditionsComfort  
Time TempWeatherWind HumidityBarometerVisibility
9:20 pm
Sat, Dec 10
46 °FPartly cloudy.8 mph93%30.09 "HgN/A
8:50 pm45 °FLight rain. Passing clouds.8 mph100%30.07 "HgN/A
8:20 pm45 °FPassing clouds.5 mph100%30.07 "HgN/A
7:50 pm46 °FPassing clouds.5 mph93%30.07 "HgN/A
7:20 pm46 °FPassing clouds.5 mph100%30.07 "HgN/A
6:50 pm46 °FLight rain. Passing clouds.3 mph100%30.07 "HgN/A
6:20 pm48 °FLight rain. Passing clouds.3 mph94%30.07 "HgN/A
5:50 pm48 °FLight rain. Passing clouds.6 mph94%30.07 "Hg4 mi
5:20 pm50 °FLight rain. Passing clouds.7 mph94%30.07 "Hg5 mi
4:50 pm50 °FLight rain. Partly cloudy.9 mph94%30.07 "HgN/A
4:20 pm50 °FPassing clouds.3 mph94%30.07 "HgN/A
3:50 pm50 °FPartly cloudy.2 mph94%30.07 "HgN/A
3:20 pm50 °FPartly sunny.3 mph100%30.07 "HgN/A
2:50 pm50 °FPartly sunny.2 mph100%30.07 "HgN/A
2:20 pm52 °FLight rain. Broken clouds.3 mph94%30.07 "Hg6 mi
1:50 pm52 °FPartly sunny.3 mph94%30.09 "HgN/A
1:20 pm52 °FPartly sunny.6 mph94%30.09 "HgN/A
12:50 pm52 °FPartly sunny.6 mph94%30.09 "HgN/A
12:20 pm52 °FScattered clouds.6 mph94%30.09 "HgN/A
11:50 am52 °FScattered clouds.7 mph94%30.09 "HgN/A
11:20 am52 °FScattered clouds.6 mph94%30.09 "HgN/A
10:50 am52 °FPartly sunny.6 mph88%30.12 "HgN/A
10:20 am50 °FPartly sunny.6 mph94%30.12 "HgN/A
9:50 am50 °FPartly sunny.5 mph94%30.12 "HgN/A
9:20 am50 °FPartly sunny.6 mph94%30.12 "HgN/A
8:50 am50 °FPartly sunny.7 mph94%30.09 "HgN/A
8:20 am50 °FPartly sunny.7 mph94%30.09 "HgN/A
7:50 am48 °FPassing clouds.7 mph100%30.09 "HgN/A
7:20 am48 °FPassing clouds.7 mph94%30.09 "HgN/A
6:50 am48 °FPassing clouds.5 mph94%30.09 "HgN/A
6:20 am48 °FPassing clouds.6 mph94%30.09 "HgN/A
5:50 am48 °FPassing clouds.6 mph94%30.09 "HgN/A
5:20 am48 °FPassing clouds.6 mph94%30.09 "HgN/A
4:50 am48 °FClear.6 mph94%30.09 "Hg10 mi
4:20 am48 °FClear.5 mph94%30.09 "Hg10 mi
3:50 am50 °FClear.7 mph94%30.07 "Hg10 mi
3:20 am50 °FClear.7 mph94%30.09 "Hg10 mi
2:50 am50 °FClear.8 mph94%30.09 "Hg10 mi
2:20 am50 °FPassing clouds.8 mph94%30.09 "HgN/A
1:50 am50 °FClear.7 mph100%30.09 "Hg10 mi
1:20 am52 °FPassing clouds.8 mph94%30.09 "HgN/A
12:50 am52 °FPassing clouds.7 mph94%30.09 "HgN/A
12:20 am52 °FClear.7 mph94%30.09 "Hg10 mi
11:50 pm
Fri, Dec 9
52 °FLight rain. Passing clouds.8 mph94%30.09 "HgN/A
11:20 pm52 °FLight rain. Passing clouds.8 mph94%30.09 "HgN/A
10:50 pm52 °FLight rain. Passing clouds.7 mph94%30.09 "HgN/A
10:20 pm52 °FLight rain. Passing clouds.5 mph94%30.09 "HgN/A
Weather by CustomWeather, © 2016

See weather overviewHow to use our weather pages